Starlink 5820

operational
NORAD ID: 55781 Int'l Des: 2023-028 Owner: SPXS Country: US Constellation: starlink
LEOCIRCULAR

Über Starlink 5820

Beschreibung wird geladen...

Live-Position

3D-Globus wird geladen...

Nächste Überflüge

Höhenverlauf

Altitude vs Time

uPlot chart will show altitude changes over time

Zweizeiliger Elementsatz

1 55781U 23028AS 25260.10175439 -.00000474 00000-0 -31933-4 0 9996
2 55781 69.9988 302.0733 0003044 268.1493 91.9317 14.98330558140538
Epoch: 17. Sept. 2025 • Age: 23 hours

Aktueller Status

Höhe 578.4 km
Geschwindigkeit 7.57 km/s
Subsatellitenpunkt -20.49°S, 103.6°E
Startdatum 3. März 2023
Alter 2.5 years
Typ internet

Technische Details

Klassifizierung Payload
Masse 305.00 kg
Trockenmasse 290.00 kg
Gesamtmasse 305.00 kg
Länge 0.20 m
Durchmesser 2.80 m
Spannweite 9.00 m
Form Box + pan
Hersteller SPXS
Bus-Typ Starlink
Phasenstatus In Orbit
Besitzer/Staat SPXS/US

Große Konstellationen

Loading constellations...